Time,TemperatureF,DewpointF,PressureIn,WindDirection,WindDirectionDegrees,WindSpeedMPH,WindSpeedGustMPH,Humidity,HourlyPrecipIn,Conditions,Clouds,dailyrainin,SoftwareType,DateUTC
2013-09-02 00:13:00,62.1,57.0,29.93,NNW,329,0.0,0.0,84,0.00,,,0.00,weatherlink.com 1.10,2013-09-02 05:13:00,
2013-09-02 00:28:00,62.5,57.0,29.94,NNW,344,0.0,0.0,83,0.00,,,0.00,weatherlink.com 1.10,2013-09-02 05:28:00,
2013-09-02 00:43:00,62.5,57.0,29.94,NW,319,0.0,0.0,83,0.00,,,0.00,weatherlink.com 1.10,2013-09-02 05:43:00,
2013-09-02 00:58:00,61.9,57.0,29.94,NW,322,0.0,0.0,84,0.00,,,0.00,weatherlink.com 1.10,2013-09-02 05:58:00,
2013-09-02 01:13:00,60.9,56.0,29.94,NNW,340,0.0,0.0,85,0.00,,,0.00,weatherlink.com 1.10,2013-09-02 06:13:00,
2013-09-02 01:28:00,60.1,56.0,29.95,NW,320,0.0,0.0,86,0.00,,,0.00,weatherlink.com 1.10,2013-09-02 06:28:00,
2013-09-02 01:43:00,59.3,56.0,29.95,NNW,344,0.0,0.0,87,0.00,,,0.00,weatherlink.com 1.10,2013-09-02 06:43:00,
2013-09-02 01:58:00,58.7,55.0,29.95,NNW,338,0.0,0.0,88,0.00,,,0.00,weatherlink.com 1.10,2013-09-02 06:58:00,
2013-09-02 02:13:00,58.0,55.0,29.95,NW,317,0.0,0.0,89,0.00,,,0.00,weatherlink.com 1.10,2013-09-02 07:13:00,
2013-09-02 02:28:00,57.5,55.0,29.95,NW,304,0.0,0.0,90,0.00,,,0.00,weatherlink.com 1.10,2013-09-02 07:28:00,
2013-09-02 02:43:00,57.1,55.0,29.95,NW,307,0.0,0.0,91,0.00,,,0.00,weatherlink.com 1.10,2013-09-02 07:43:00,
2013-09-02 02:58:00,56.7,54.0,29.95,NNW,332,0.0,0.0,91,0.00,,,0.00,weatherlink.com 1.10,2013-09-02 07:58:00,
2013-09-02 03:13:00,56.3,54.0,29.96,NW,306,0.0,0.0,91,0.00,,,0.00,weatherlink.com 1.10,2013-09-02 08:13:00,
2013-09-02 03:28:00,56.0,54.0,29.96,WNW,298,0.0,0.0,91,0.00,,,0.00,weatherlink.com 1.10,2013-09-02 08:28:00,
2013-09-02 03:43:00,55.7,54.0,29.97,NW,314,0.0,0.0,92,0.00,,,0.00,weatherlink.com 1.10,2013-09-02 08:43:00,
2013-09-02 03:58:00,55.4,53.0,29.96,NNW,332,0.0,0.0,92,0.00,,,0.00,weatherlink.com 1.10,2013-09-02 08:58:00,
2013-09-02 04:13:00,55.1,53.0,29.97,NW,320,0.0,0.0,92,0.00,,,0.00,weatherlink.com 1.10,2013-09-02 09:13:00,
2013-09-02 04:28:00,54.9,53.0,29.97,NNW,333,0.0,0.0,92,0.00,,,0.00,weatherlink.com 1.10,2013-09-02 09:28:00,
2013-09-02 04:44:00,54.6,53.0,29.98,NW,306,0.0,0.0,93,0.00,,,0.00,weatherlink.com 1.10,2013-09-02 09:44:00,
2013-09-02 04:59:00,54.2,52.0,29.98,NNW,331,0.0,0.0,93,0.00,,,0.00,weatherlink.com 1.10,2013-09-02 09:59:00,
2013-09-02 05:14:00,53.9,52.0,29.98,NNW,334,0.0,0.0,93,0.00,,,0.00,weatherlink.com 1.10,2013-09-02 10:14:00,
2013-09-02 05:29:00,53.6,52.0,29.98,NW,317,0.0,0.0,93,0.00,,,0.00,weatherlink.com 1.10,2013-09-02 10:29:00,
2013-09-02 05:44:00,53.3,51.0,29.98,NW,306,0.0,0.0,93,0.00,,,0.00,weatherlink.com 1.10,2013-09-02 10:44:00,
2013-09-02 05:59:00,53.1,51.0,29.98,NW,324,0.0,0.0,93,0.00,,,0.00,weatherlink.com 1.10,2013-09-02 10:59:00,
2013-09-02 06:14:00,52.9,51.0,29.99,NW,326,0.0,0.0,94,0.00,,,0.00,weatherlink.com 1.10,2013-09-02 11:14:00,
2013-09-02 06:29:00,52.8,51.0,30.00,NNW,338,0.0,0.0,94,0.00,,,0.00,weatherlink.com 1.10,2013-09-02 11:29:00,
2013-09-02 06:44:00,52.7,51.0,30.00,NNW,332,0.0,0.0,94,0.00,,,0.00,weatherlink.com 1.10,2013-09-02 11:44:00,
2013-09-02 06:59:00,52.5,51.0,30.01,NW,319,0.0,0.0,94,0.00,,,0.00,weatherlink.com 1.10,2013-09-02 11:59:00,
2013-09-02 07:14:00,52.8,51.0,30.01,NNW,327,0.0,0.0,94,0.00,,,0.00,weatherlink.com 1.10,2013-09-02 12:14:00,
2013-09-02 07:29:00,53.3,51.0,30.02,NNW,346,0.0,0.0,93,0.00,,,0.00,weatherlink.com 1.10,2013-09-02 12:29:00,
2013-09-02 07:44:00,54.0,52.0,30.02,North,355,0.0,0.0,92,0.00,,,0.00,weatherlink.com 1.10,2013-09-02 12:44:00,
2013-09-02 07:59:00,54.9,52.0,30.02,NNW,338,0.0,0.0,91,0.00,,,0.00,weatherlink.com 1.10,2013-09-02 12:59:00,
2013-09-02 08:14:00,55.9,53.0,30.02,NNE,13,0.0,0.0,89,0.00,,,0.00,weatherlink.com 1.10,2013-09-02 13:14:00,
2013-09-02 08:29:00,56.8,53.0,30.02,NNW,338,0.0,0.0,87,0.00,,,0.00,weatherlink.com 1.10,2013-09-02 13:29:00,
2013-09-02 08:44:00,57.7,53.0,30.02,North,351,0.0,0.0,85,0.00,,,0.00,weatherlink.com 1.10,2013-09-02 13:44:00,
2013-09-02 08:59:00,59.0,54.0,30.02,NNE,33,0.0,0.0,83,0.00,,,0.00,weatherlink.com 1.10,2013-09-02 13:59:00,
2013-09-02 09:14:00,59.5,53.0,30.03,NNW,344,0.0,0.0,80,0.00,,,0.00,weatherlink.com 1.10,2013-09-02 14:14:00,
2013-09-02 09:29:00,60.4,53.0,30.03,NNE,15,0.0,0.0,77,0.00,,,0.00,weatherlink.com 1.10,2013-09-02 14:29:00,
2013-09-02 09:44:00,61.4,54.0,30.03,North,5,0.0,0.0,76,0.00,,,0.00,weatherlink.com 1.10,2013-09-02 14:44:00,
2013-09-02 09:59:00,62.3,53.0,30.03,North,10,0.0,0.0,72,0.00,,,0.00,weatherlink.com 1.10,2013-09-02 14:59:00,
2013-09-02 10:14:00,62.9,54.0,30.04,North,355,0.0,0.0,72,0.00,,,0.00,weatherlink.com 1.10,2013-09-02 15:14:00,
2013-09-02 10:29:00,63.8,53.0,30.04,NNW,336,0.0,0.0,69,0.00,,,0.00,weatherlink.com 1.10,2013-09-02 15:29:00,
2013-09-02 10:44:00,64.5,54.0,30.04,North,360,0.0,0.0,68,0.00,,,0.00,weatherlink.com 1.10,2013-09-02 15:44:00,
2013-09-02 10:59:00,64.7,54.0,30.05,NNW,333,0.0,0.0,68,0.00,,,0.00,weatherlink.com 1.10,2013-09-02 15:59:00,
2013-09-02 11:14:00,65.5,54.0,30.05,NNE,24,0.0,0.0,66,0.00,,,0.00,weatherlink.com 1.10,2013-09-02 16:14:00,
2013-09-02 11:29:00,65.8,54.0,30.05,NNW,339,0.0,0.0,65,0.00,,,0.00,weatherlink.com 1.10,2013-09-02 16:29:00,
2013-09-02 11:44:00,66.3,54.0,30.04,NNW,340,0.0,0.0,64,0.00,,,0.00,weatherlink.com 1.10,2013-09-02 16:44:00,
2013-09-02 11:59:00,66.4,54.0,30.04,North,355,0.0,0.0,64,0.00,,,0.00,weatherlink.com 1.10,2013-09-02 16:59:00,
2013-09-02 12:14:00,67.5,53.0,30.03,NNE,27,0.0,0.0,61,0.00,,,0.00,weatherlink.com 1.10,2013-09-02 17:14:00,
2013-09-02 12:30:00,67.9,54.0,30.03,NE,34,0.0,0.0,61,0.00,,,0.00,weatherlink.com 1.10,2013-09-02 17:30:00,
2013-09-02 12:45:00,68.3,53.0,30.03,ENE,76,0.0,0.0,58,0.00,,,0.00,weatherlink.com 1.10,2013-09-02 17:45:00,
2013-09-02 13:00:00,69.2,54.0,30.02,North,11,0.0,0.0,58,0.00,,,0.00,weatherlink.com 1.10,2013-09-02 18:00:00,
2013-09-02 13:15:00,68.8,54.0,30.02,NW,311,0.0,0.0,59,0.00,,,0.00,weatherlink.com 1.10,2013-09-02 18:15:00,
2013-09-02 13:30:00,69.7,54.0,30.02,NW,308,0.0,0.0,57,0.00,,,0.00,weatherlink.com 1.10,2013-09-02 18:30:00,
2013-09-02 13:45:00,69.9,53.0,30.01,NE,38,0.0,0.0,55,0.00,,,0.00,weatherlink.com 1.10,2013-09-02 18:45:00,
2013-09-02 14:00:00,70.6,53.0,30.01,NNE,21,0.0,0.0,54,0.00,,,0.00,weatherlink.com 1.10,2013-09-02 19:00:00,
2013-09-02 14:15:00,70.9,54.0,30.01,NW,313,0.0,0.0,55,0.00,,,0.00,weatherlink.com 1.10,2013-09-02 19:15:00,
2013-09-02 14:30:00,71.3,54.0,30.01,North,350,0.0,0.0,54,0.00,,,0.00,weatherlink.com 1.10,2013-09-02 19:30:00,
2013-09-02 14:45:00,71.9,53.0,30.01,NNW,340,0.0,0.0,52,0.00,,,0.00,weatherlink.com 1.10,2013-09-02 19:45:00,
2013-09-02 15:00:00,71.6,53.0,30.00,North,5,0.0,0.0,52,0.00,,,0.00,weatherlink.com 1.10,2013-09-02 20:00:00,
2013-09-02 15:15:00,72.2,53.0,30.00,NW,316,0.0,0.0,51,0.00,,,0.00,weatherlink.com 1.10,2013-09-02 20:15:00,
2013-09-02 15:30:00,72.0,53.0,30.00,NNW,340,0.0,0.0,52,0.00,,,0.00,weatherlink.com 1.10,2013-09-02 20:30:00,
2013-09-02 15:45:00,72.7,52.0,29.99,NNE,21,0.0,0.0,49,0.00,,,0.00,weatherlink.com 1.10,2013-09-02 20:45:00,
2013-09-02 16:00:00,73.1,53.0,29.99,North,11,0.0,0.0,50,0.00,,,0.00,weatherlink.com 1.10,2013-09-02 21:00:00,
2013-09-02 16:15:00,72.8,52.0,30.00,NW,313,0.0,0.0,49,0.00,,,0.00,weatherlink.com 1.10,2013-09-02 21:15:00,
2013-09-02 16:30:00,72.5,53.0,29.99,NNW,342,0.0,0.0,50,0.00,,,0.00,weatherlink.com 1.10,2013-09-02 21:30:00,
2013-09-02 16:45:00,72.8,52.0,29.99,NNW,340,0.0,0.0,49,0.00,,,0.00,weatherlink.com 1.10,2013-09-02 21:45:00,
2013-09-02 17:00:00,73.0,52.0,29.99,NNE,27,0.0,0.0,48,0.00,,,0.00,weatherlink.com 1.10,2013-09-02 22:00:00,
2013-09-02 17:15:00,72.7,52.0,29.99,NNE,13,0.0,0.0,49,0.00,,,0.00,weatherlink.com 1.10,2013-09-02 22:15:00,
2013-09-02 17:30:00,72.9,53.0,29.98,NNW,344,0.0,0.0,50,0.00,,,0.00,weatherlink.com 1.10,2013-09-02 22:30:00,
2013-09-02 17:45:00,72.5,53.0,29.99,NNE,30,0.0,0.0,50,0.00,,,0.00,weatherlink.com 1.10,2013-09-02 22:45:00,
2013-09-02 18:00:00,72.0,53.0,29.99,NNE,16,0.0,0.0,51,0.00,,,0.00,weatherlink.com 1.10,2013-09-02 23:00:00,
2013-09-02 18:15:00,71.7,54.0,29.99,NNE,13,0.0,0.0,53,0.00,,,0.00,weatherlink.com 1.10,2013-09-02 23:15:00,
2013-09-02 18:30:00,71.4,54.0,29.98,North,351,0.0,0.0,54,0.00,,,0.00,weatherlink.com 1.10,2013-09-02 23:30:00,
2013-09-02 18:45:00,71.5,54.0,29.98,NNE,13,0.0,0.0,54,0.00,,,0.00,weatherlink.com 1.10,2013-09-02 23:45:00,
2013-09-02 19:00:00,70.8,54.0,29.98,NNE,29,0.0,0.0,56,0.00,,,0.00,weatherlink.com 1.10,2013-09-03 00:00:00,
2013-09-02 19:15:00,69.9,54.0,29.99,NNE,14,0.0,0.0,58,0.00,,,0.00,weatherlink.com 1.10,2013-09-03 00:15:00,
2013-09-02 19:30:00,69.0,55.0,29.99,NNE,18,0.0,0.0,61,0.00,,,0.00,weatherlink.com 1.10,2013-09-03 00:30:00,
2013-09-02 19:45:00,68.1,55.0,29.99,NE,36,0.0,0.0,63,0.00,,,0.00,weatherlink.com 1.10,2013-09-03 00:45:00,
2013-09-02 20:00:00,67.4,55.0,29.99,NNE,32,0.0,0.0,65,0.00,,,0.00,weatherlink.com 1.10,2013-09-03 01:00:00,
2013-09-02 20:15:00,67.0,56.0,29.99,NNE,32,0.0,0.0,67,0.00,,,0.00,weatherlink.com 1.10,2013-09-03 01:15:00,
2013-09-02 20:30:00,65.5,55.0,30.00,NNE,32,0.0,0.0,70,0.00,,,0.00,weatherlink.com 1.10,2013-09-03 01:30:00,
2013-09-02 20:45:00,64.5,55.0,29.99,NNE,32,0.0,0.0,72,0.00,,,0.00,weatherlink.com 1.10,2013-09-03 01:45:00,
2013-09-02 21:00:00,63.9,55.0,30.00,NNE,32,0.0,0.0,74,0.00,,,0.00,weatherlink.com 1.10,2013-09-03 02:00:00,
2013-09-02 21:15:00,63.3,55.0,30.00,NNE,32,0.0,0.0,75,0.00,,,0.00,weatherlink.com 1.10,2013-09-03 02:15:00,
2013-09-02 21:30:00,62.7,55.0,30.01,NNE,32,0.0,0.0,77,0.00,,,0.00,weatherlink.com 1.10,2013-09-03 02:30:00,
2013-09-02 21:45:00,62.4,55.0,30.01,NNE,28,0.0,0.0,78,0.00,,,0.00,weatherlink.com 1.10,2013-09-03 02:45:00,
2013-09-02 22:00:00,61.5,55.0,30.01,NE,42,0.0,0.0,79,0.00,,,0.00,weatherlink.com 1.10,2013-09-03 03:00:00,
2013-09-02 22:15:00,60.9,55.0,30.01,NE,40,0.0,0.0,80,0.00,,,0.00,weatherlink.com 1.10,2013-09-03 03:15:00,
2013-09-02 22:30:00,60.0,54.0,30.01,NE,50,0.0,0.0,81,0.00,,,0.00,weatherlink.com 1.10,2013-09-03 03:30:00,
2013-09-02 22:45:00,58.8,54.0,30.01,NE,49,0.0,0.0,83,0.00,,,0.00,weatherlink.com 1.10,2013-09-03 03:45:00,
2013-09-02 23:00:00,57.8,53.0,30.02,East,82,0.0,0.0,84,0.00,,,0.00,weatherlink.com 1.10,2013-09-03 04:00:00,
2013-09-02 23:15:00,57.3,53.0,30.02,ENE,77,0.0,0.0,85,0.00,,,0.00,weatherlink.com 1.10,2013-09-03 04:15:00,
2013-09-02 23:30:00,56.7,53.0,30.02,East,89,0.0,0.0,86,0.00,,,0.00,weatherlink.com 1.10,2013-09-03 04:30:00,
2013-09-02 23:45:00,56.1,52.0,30.02,East,91,0.0,0.0,87,0.00,,,0.00,weatherlink.com 1.10,2013-09-03 04:45:00,